Home > Weather > New Haven > Past weeks

Flag for USA Past Weather in New Haven, Connecticut, USA — Yesterday and Last 2 Weeks

Now
61 °F

Clear.


Feels Like: 61 °F
Forecast: 61 / 81 °F
Wind: No wind

Location: Tweed-New Haven Airport

Current Time: May 27, 2016 at 4:28:46 AM

Latest Report: May 27, 2016 at 3:53 AM


Visibility: 10 mi

Pressure: 30.07 "Hg

Humidity: 83%

Dew Point: 56 °F

Location of New HavenLocation

Past Weather in New Haven — Graph

°F

New Haven Temperature Yesterday

Maximum temperature yesterday: 86 °F (at 2:53 PM)
Minimum temperature yesterday: 58 °F (at 4:53 AM)
Average temperature yesterday: 71 °F

High & Low Weather Summary for the Past Weeks

 TemperatureHumidityPressure
High86 °F (May 26, 2:53 PM)100% (May 13, 8:53 PM)30.24 "Hg (May 13, 8:53 PM)
Low43 °F (May 16, 3:53 AM)24% (May 16, 3:53 PM)29.59 "Hg (May 15, 12:53 AM)
Average59 °F68%29.98 "Hg
* Reported May 12 2:53 AM — May 27 2:53 AM, New Haven, Weather by CustomWeather, © 2016

Note: Actual official high and low records may vary slightly from our data, if they occured in-between our weather recording intervals... More about our weather records

Advertising

New Haven Weather History for the Previous 24 Hours

Scroll right to see more
 ConditionsComfort  
Time TempWeatherWind HumidityBarometerVisibility
2:53 AM
Fri, May 27
62 °FClear.3 mph83%30.07 "Hg10 mi
1:53 AM61 °FClear.No wind81%30.07 "Hg10 mi
12:53 AM63 °FClear.No wind78%30.07 "Hg10 mi
11:53 PM
Thu, May 26
64 °FClear.No wind73%30.08 "Hg10 mi
10:53 PM66 °FClear.No wind68%30.08 "Hg10 mi
9:53 PM65 °FClear.No wind68%30.07 "Hg10 mi
8:53 PM69 °FSunny.3 mph61%30.05 "Hg10 mi
7:53 PM74 °FSunny.7 mph52%30.04 "Hg10 mi
6:53 PM73 °FSunny.7 mph64%30.04 "Hg10 mi
5:53 PM80 °FSunny.5 mph44%30.03 "Hg10 mi
4:53 PM81 °FSunny.6 mph42%30.04 "Hg10 mi
3:53 PM82 °FSunny.10 mph40%30.05 "Hg10 mi
2:53 PM86 °FScattered clouds.8 mph36%30.05 "Hg10 mi
1:53 PM85 °FScattered clouds.7 mph40%30.06 "Hg10 mi
12:53 PM84 °FScattered clouds.7 mph40%30.07 "Hg10 mi
11:53 AM81 °FScattered clouds.5 mph42%30.09 "Hg10 mi
10:53 AM74 °FSunny.6 mph57%30.10 "Hg10 mi
9:53 AM77 °FSunny.No wind47%30.09 "Hg10 mi
8:53 AM73 °FSunny.No wind64%30.10 "Hg10 mi
7:53 AM64 °FBroken clouds.No wind78%30.11 "Hg9 mi
6:53 AM63 °FBroken clouds.No wind84%30.09 "Hg10 mi
5:53 AM58 °FPartly cloudy.No wind90%30.08 "Hg10 mi
4:53 AM58 °FClear.3 mph87%30.07 "Hg10 mi
Weather by CustomWeather, © 2016

See weather overviewHow to use our weather pages